TimeMDT,TemperatureF,Dew PointF,Humidity,Sea Level PressureIn,VisibilityMPH,Wind Direction,Wind SpeedMPH,Gust SpeedMPH,PrecipitationIn,Events,Conditions,WindDirDegrees,DateUTC
12:00 AM,21.2,19.4,93,29.28,-9999.0,ENE,21.9,-,0.01,,Unknown,70,2013-08-21 06:00:00
1:00 AM,22.1,20.3,93,29.25,-9999.0,ENE,21.9,27.6,N/A,,Unknown,60,2013-08-21 07:00:00
2:00 AM,22.3,20.8,94,29.22,-9999.0,ENE,26.5,-,N/A,,Unknown,60,2013-08-21 08:00:00
3:00 AM,22.5,20.8,93,29.20,-9999.0,ENE,26.5,-,N/A,,Unknown,70,2013-08-21 09:00:00
5:00 AM,23.5,22.3,95,29.17,-9999.0,ENE,27.6,-,N/A,,Unknown,70,2013-08-21 11:00:00
6:00 AM,24,24,97,29.16,,ENE,27.6,,,,,70,2013-08-21 12:00:00
6:00 AM,24.4,23.5,96,29.16,-9999.0,ENE,26.5,34.5,N/A,,Unknown,70,2013-08-21 12:00:00
7:00 AM,26.4,25.7,97,29.16,-9999.0,ENE,19.6,-,0.01,,Unknown,70,2013-08-21 13:00:00
8:00 AM,27.0,26.1,96,29.16,-9999.0,East,17.3,-,N/A,,Unknown,90,2013-08-21 14:00:00
9:00 AM,27.3,25.9,94,29.16,-9999.0,East,16.1,-,N/A,,Unknown,90,2013-08-21 15:00:00
10:00 AM,28.8,27.5,95,29.15,-9999.0,East,13.8,-,N/A,,Unknown,90,2013-08-21 16:00:00
11:00 AM,27.5,25.0,90,29.16,-9999.0,ESE,12.7,-,N/A,,Unknown,120,2013-08-21 17:00:00
12:00 PM,28,25,84,29.17,,SSE,12.7,,,,,150,2013-08-21 18:00:00
12:00 PM,27.5,25.0,90,29.17,-9999.0,SSE,12.7,-,N/A,,Unknown,150,2013-08-21 18:00:00
1:00 PM,25.2,23.2,92,29.18,-9999.0,SSE,16.1,-,N/A,,Unknown,150,2013-08-21 19:00:00
2:00 PM,26.1,23.9,92,29.19,-9999.0,SSE,17.3,-,N/A,,Unknown,160,2013-08-21 20:00:00
3:00 PM,25.0,22.5,90,29.21,-9999.0,SE,18.4,-,N/A,,Unknown,140,2013-08-21 21:00:00
4:00 PM,23.9,21.7,91,29.23,-9999.0,SSE,13.8,-,N/A,,Unknown,160,2013-08-21 22:00:00
5:00 PM,24.1,21.0,88,29.25,-9999.0,South,12.7,19.6,N/A,,Unknown,170,2013-08-21 23:00:00
6:00 PM,24,21,85,29.26,,SSE,19.6,,,,,160,2013-08-22 00:00:00
6:00 PM,23.7,21.4,91,29.26,-9999.0,South,18.4,-,N/A,,Unknown,170,2013-08-22 00:00:00
8:00 PM,23.0,20.3,89,29.30,-9999.0,South,16.1,-,N/A,,Unknown,170,2013-08-22 02:00:00
9:00 PM,22.6,19.4,87,29.32,-9999.0,SSE,19.6,-,N/A,,Unknown,150,2013-08-22 03:00:00
10:00 PM,22.3,18.5,85,29.33,-9999.0,SE,17.3,-,N/A,,Unknown,140,2013-08-22 04:00:00
11:00 PM,21.4,17.2,84,29.35,-9999.0,SE,20.7,-,N/A,,Unknown,140,2013-08-22 05:00:00